Aérodrome :
LOGIN :

S'inscrire | Disclaimer

   EN    FR    IT 

 










Légende :    VFR   VFR Marginal   IFR   IFR Intensif   IFR Très Intensif
Visi : 
Plafond : 
>= 8 km
>= 3000ft
5 à 8 km
1000 à 3000 ft
1500m à 5 km
500 à 1000 ft
800 à 1500m
200 à 500 ft
< 800m
< 200 ft
Symboles :   Orages  Brouillard  Fortes neiges  Fortes précipitations  Vent > 20 kt
SIGMETs :   Divers  Orages  Givrage  Turbulence  Onde Orograph.  Cendres Volcan.







- Altitude de l'aérodrome : 3855 ft


DAAY - Mecheria

DERNIER METAR :
  • 222200Z 06014KT 9999 SCT030 21/10 Q1023

METARs EXPIRÉS :
  • 222000Z 03008KT 9999 SCT030 24/11 Q1021

TAF TAF DAAY
Valide du 22 à 18h jusqu'au 23 à 03h UTC


221700Z 2218/2303 01014KT 9999 SCT030
Pas de NOTAMs connus pour ce terrain.
1 SIGMET publié pour la FIR Alger (DAAA) :
 
Orages noyés dans la masse
DAAA SIGMET 10 VALID 222200/222330 DAMM
DAAA ALGER FIR EMBD TS OBS WI N3316 E00544 - N3139 E00428 - N3155 E00224 - N3311 E00358 - N3316 E00544 TOP FL300 MOV E NC=



MET'MAP, la Météo Aéronautique d'un coup d'oeil ! - Copyright ORBIFLY Décembre 2007 - Disclaimer

ORBIFLY MET'MAP TEAM :

Programmation & Développement : Alexandra Zaïnal
Conception & Développement : Baudouin d'Aumeries
Co-Programmation & Développement : Marc-Olivier Méhu
Soutien technique & logistique : Manuel Goepfert

Contact : metmap@orbifly.com




SOURCES & CREDITS :

   NOAA